Terminal Aerodrome Forecast
Issued by NWS Grand Junction, CO

Home | Current Version | Previous Version | Text Only | Print | Product List | Glossary On
Versions: 1 2 3 4 5 6 7 8 9 10 11 12 13 14 15 16 17 18 19 20 21 22 23 24 25 26 27 28 29 30
000
FTUS45 KGJT 232337
TAFGJT
TAF
KGJT 232337Z 2400/2424 31010KT P6SM SCT110
     FM240200 05004KT P6SM SKC
     FM240600 11009KT P6SM SKC
     FM241500 14009KT P6SM SKC
     FM242000 31006KT P6SM FEW110=

USA.gov is the U.S. government's official web portal to all federal, state and local government web resources and services.